Location: Asheville, NC
(35.6000°N, 82.5500°W)
Time: 03:04:37
(UTC-04:00)

Vanguard 1 Rocket - Pass Details

Date: 16 December 2017
Orbit: 654 x 4223 km, 34.3° (Epoch: 21 April)

Event Time Altitude Azimuth Distance (km) Brightness Sun altitude
Rises 13:52:58 0° 183° (S) 3,298 11.4 27.6°
Reaches altitude 10° 13:56:50 10° 152° (SSE) 2,751 10.5 27.3°
Maximum altitude 13:59:27 12° 128° (SE) 2,869 10.2 27.0°
Drops below altitude 10° 14:02:35 10° 105° (ESE) 3,447 10.3 26.8°
Sets 14:09:03 0° 81° (E) 5,281 11.0 26.2°
